Simultaneous Nadir Overpasses (SNOs) Predictions

Prediction of SNOs between AURA and NPP Satellite Orbit:

Table of predicted SNOs for the next 14.0 days since TLE Epoch: 7/26/2025
Index Date (AURA) Time (AURA) Lat,Lon (AURA) SZA (AURA ) Date (NPP) Time (NPP) Lat,Lon (NPP) SZA (NPP ) Distance(km) Time Diff (sec)
1 07/28/2025 00:26:35 -81.14, -85.23 110.24 07/28/2025 00:25:47 -81.14, -85.18 110.22 0.82 48
2 07/28/2025 01:15:54 81.15, 82.55 69.75 07/28/2025 01:16:31 81.15, 82.62 69.72 1.37 37
3 07/30/2025 11:38:08 -81.14, 106.89 109.67 07/30/2025 11:38:12 -81.15, 106.92 109.67 0.89 4
4 08/01/2025 22:00:20 81.14, 131.44 70.92 08/01/2025 21:59:53 81.14, 131.39 70.94 0.74 27
5 08/01/2025 22:49:39 -81.17, -60.50 109.14 08/01/2025 22:50:36 -81.16, -60.63 109.15 2.35 57
6 08/04/2025 08:22:33 -81.13, 155.71 108.44 08/04/2025 08:21:34 -81.13, 155.69 108.40 0.58 59
7 08/04/2025 09:11:51 81.15, -36.20 71.51 08/04/2025 09:12:17 81.16, -36.21 71.50 0.15 26



Historial Predications of SNOs between AURA and NPP
